Regional Weather Roundup
Issued by NWS

Home | Current Version | Previous Version | Graphics & Text | Print | Product List | Glossary On
Versions: 1 2 3 4 5 6 7 8 9 10 11 12 13 14 15 16 17 18 19 20 21 22 23 24 25 26 27 28 29 30 31 32 33 34 35 36 37 38 39 40 41 42 43 44 45 46 47 48 49 50
000
ASUS44 KMEG 240510
RWRTN
TENNESSEE HOURLY STATE WEATHER ROUNDUP
NATIONAL WEATHER SERVICE MEMPHIS TN
1200 AM CDT FRI OCT 24 2014

TNZ002-004-019-021-049-052-054-088>092-240600-
WEST TENNESSEE

CITY           SKY/WX    TMP DP  RH WIND       PRES   REMARKS
MEMPHIS INTL   CLOUDY    55  48  77 W3        30.14S
NWS MEMPHIS      N/A     52 N/A N/A MISG        N/A
JACKSON        MOCLDY    48  44  86 CALM      30.11F
DYERSBURG      PTCLDY    48  37  66 CALM      30.15S
UNION CITY     CLEAR     46  45  93 CALM      30.11S
PARIS          CLEAR     46  43  87 CALM      30.12S
HUNTINGDON     MOCLDY    48  44  86 CALM      30.11F
LEXINGTON      CLEAR     48  46  93 CALM      30.10S
SAVANNAH       CLEAR     52  48  87 CALM      30.11F
$$

TNZ008-025-027-028-033-062-065-066-240600-
NORTH MIDDLE TENNESSEE

CITY           SKY/WX    TMP DP  RH WIND       PRES   REMARKS
NASHVILLE      CLOUDY    51  45  79 CALM      30.12F
CLARKSVILLE    CLOUDY    50  45  83 NE3       30.11F
SMYRNA         CLOUDY    50  46  85 CALM      30.13F
COOKEVILLE     CLEAR     45  45 100 CALM      30.10F
CROSSVILLE     CLOUDY    47  41  80 CALM      30.11F
$$

TNZ061-075-076-078-094-096-097-240600-
SOUTH MIDDLE TENNESSEE

CITY           SKY/WX    TMP DP  RH WIND       PRES   REMARKS
FAYETTEVILLE   CLEAR     50  43  76 N5        30.10S
TULLAHOMA      CLEAR     48  43  81 N3        30.10F
WINCHESTER     CLEAR     46  45  93 CALM      30.11S
MCMINNVILLE    CLEAR     46  46 100 CALM      30.10F
COLUMBIA         N/A     50  50 100 CALM      30.09F
SHELBYVILLE    CLEAR     48  46  93 S6        30.13R
$$

TNZ017-018-042-046-047-240600-
NORTHEAST TENNESSEE

CITY           SKY/WX    TMP DP  RH WIND       PRES   REMARKS
TRI CITIES     CLOUDY    41  39  93 CALM      30.12F
ELIZABETHTON   CLEAR     37  37 100 CALM      30.13R
$$

TNZ012-013-036-069-073-074-240600-
CENTRAL EAST TENNESSEE

CITY           SKY/WX    TMP DP  RH WIND       PRES   REMARKS
KNOXVILLE      MOCLDY    47  42  83 N6        30.10R
OAK RIDGE      MOCLDY    48  45  89 CALM      30.13R
GATLINBURG     CLEAR     43  39  87 CALM      30.10F
MORRISTOWN     CLEAR     46  43  87 CALM      30.12S
$$

TNZ083-085-099-240600-
SOUTHEAST TENNESSEE

CITY           SKY/WX    TMP DP  RH WIND       PRES   REMARKS
CHATTANOOGA    CLOUDY    53  47  79 CALM      30.09S
$$

SKY/WX REPORTED AS FAIR MEANS FEW OR NO CLOUDS BELOW
12 THOUSAND FEET.




USA.gov is the U.S. government's official web portal to all federal, state and local government web resources and services.